Hourly Weather Godziembow

Today, 13 May, Thursday

Time Temperature Precipitation Wind Pressure Humidity
00:00 +9°C° 0 mm 5 mps 740 mmHg 75%
01:00 +8°C° 0 mm 5 mps 740 mmHg 79%
02:00 +7°C° 0 mm 4 mps 740 mmHg 83%
03:00 +6°C° 0 mm 4 mps 739 mmHg 84%
04:00 +6°C° 0 mm 4 mps 739 mmHg 86%
05:00 +5°C° 0 mm 4 mps 738 mmHg 87%
06:00 +7°C° 0 mm 4 mps 738 mmHg 82%
07:00 +10°C° 0 mm 4 mps 737 mmHg 76%
08:00 +12°C° 0 mm 5 mps 737 mmHg 71%
09:00 +13°C° 0 mm 5 mps 737 mmHg 68%
10:00 +14°C° 0 mm 5 mps 736 mmHg 64%
11:00 +16°C° 0 mm 5 mps 736 mmHg 61%
12:00 +16°C° 0 mm 5 mps 736 mmHg 63%
13:00 +16°C° 0 mm 5 mps 735 mmHg 65%
14:00 +17°C° 0 mm 4 mps 735 mmHg 67%
15:00 +17°C° 0 mm 4 mps 735 mmHg 72%
16:00 +15°C° 0 mm 4 mps 734 mmHg 77%
17:00 +14°C° 0 mm 3 mps 734 mmHg 82%
18:00 +14°C° 0.1 mm 3 mps 734 mmHg 85%
19:00 +14°C° 0.1 mm 3 mps 734 mmHg 87%
20:00 +13°C° 0.1 mm 3 mps 734 mmHg 90%
21:00 +13°C° 0 mm 3 mps 734 mmHg 90%
22:00 +13°C° 0 mm 3 mps 734 mmHg 90%
23:00 +12°C° 0 mm 3 mps 734 mmHg 90%

Tomorrow, 14 May, Friday

Time Temperature Precipitation Wind Pressure Humidity
00:00 +12°C° 0 mm 3 mps 734 mmHg 91%
01:00 +12°C° 0 mm 3 mps 734 mmHg 92%
02:00 +11°C° 0 mm 4 mps 734 mmHg 93%
03:00 +11°C° 0.1 mm 4 mps 734 mmHg 93%
04:00 +11°C° 0.1 mm 4 mps 734 mmHg 93%
05:00 +11°C° 0.1 mm 4 mps 734 mmHg 93%
06:00 +11°C° 0.4 mm 4 mps 734 mmHg 93%
07:00 +11°C° 0.4 mm 4 mps 734 mmHg 93%
08:00 +11°C° 0.4 mm 4 mps 735 mmHg 93%
09:00 +12°C° 0.1 mm 4 mps 735 mmHg 92%
10:00 +12°C° 0.1 mm 4 mps 735 mmHg 91%
11:00 +13°C° 0.1 mm 4 mps 736 mmHg 89%
12:00 +13°C° 0.3 mm 4 mps 736 mmHg 87%
13:00 +14°C° 0.3 mm 4 mps 736 mmHg 85%
14:00 +14°C° 0.3 mm 4 mps 737 mmHg 83%
15:00 +14°C° 0.4 mm 4 mps 737 mmHg 82%
16:00 +15°C° 0.4 mm 4 mps 737 mmHg 82%
17:00 +15°C° 0.4 mm 4 mps 737 mmHg 81%
18:00 +14°C° 0.2 mm 5 mps 737 mmHg 83%
19:00 +13°C° 0.2 mm 5 mps 738 mmHg 85%
20:00 +12°C° 0.2 mm 5 mps 738 mmHg 88%
21:00 +10°C° 0 mm 5 mps 738 mmHg 89%
22:00 +10°C° 0 mm 4 mps 739 mmHg 90%
23:00 +10°C° 0 mm 4 mps 739 mmHg 91%

Day after tomorrow, 15 May, Saturday

Time Temperature Precipitation Wind Pressure Humidity
00:00 +10°C° 0 mm 4 mps 739 mmHg 91%
01:00 +10°C° 0 mm 4 mps 740 mmHg 90%
02:00 +9°C° 0 mm 3 mps 740 mmHg 90%
03:00 +9°C° 0 mm 3 mps 740 mmHg 90%
04:00 +9°C° 0 mm 3 mps 740 mmHg 90%
05:00 +10°C° 0 mm 3 mps 740 mmHg 90%
06:00 +10°C° 0 mm 3 mps 741 mmHg 90%
07:00 +10°C° 0 mm 3 mps 741 mmHg 90%
08:00 +10°C° 0 mm 3 mps 741 mmHg 89%
09:00 +11°C° 0 mm 3 mps 741 mmHg 86%
10:00 +12°C° 0 mm 3 mps 742 mmHg 83%
11:00 +12°C° 0 mm 3 mps 742 mmHg 79%
12:00 +13°C° 0.1 mm 3 mps 742 mmHg 78%
13:00 +13°C° 0.1 mm 3 mps 742 mmHg 76%
14:00 +14°C° 0.1 mm 3 mps 742 mmHg 74%
15:00 +15°C° 0 mm 2 mps 742 mmHg 71%
16:00 +16°C° 0 mm 2 mps 741 mmHg 68%
17:00 +16°C° 0 mm 1 mps 741 mmHg 66%
18:00 +15°C° 0 mm 1 mps 741 mmHg 71%
19:00 +14°C° 0 mm 1 mps 741 mmHg 77%
20:00 +13°C° 0 mm 2 mps 741 mmHg 83%
21:00 +12°C° 0 mm 2 mps 741 mmHg 85%
22:00 +10°C° 0 mm 2 mps 741 mmHg 87%
23:00 +9°C° 0 mm 2 mps 741 mmHg 89%

16 May, Sunday

Time Temperature Precipitation Wind Pressure Humidity
00:00 +9°C° 0 mm 2 mps 741 mmHg 89%
01:00 +9°C° 0 mm 2 mps 741 mmHg 89%
02:00 +9°C° 0 mm 2 mps 741 mmHg 89%
03:00 +9°C° 0 mm 3 mps 741 mmHg 89%
04:00 +9°C° 0 mm 3 mps 741 mmHg 88%
05:00 +9°C° 0 mm 3 mps 741 mmHg 87%
06:00 +11°C° 0 mm 3 mps 740 mmHg 83%
07:00 +12°C° 0 mm 4 mps 740 mmHg 80%
08:00 +14°C° 0 mm 5 mps 740 mmHg 77%
09:00 +15°C° 0.1 mm 5 mps 740 mmHg 73%
10:00 +17°C° 0.1 mm 5 mps 740 mmHg 69%
11:00 +19°C° 0.1 mm 6 mps 740 mmHg 66%
12:00 +20°C° 0.2 mm 5 mps 739 mmHg 64%
13:00 +20°C° 0.2 mm 5 mps 739 mmHg 63%
14:00 +21°C° 0.2 mm 5 mps 739 mmHg 62%
15:00 +20°C° 0.3 mm 5 mps 738 mmHg 66%
16:00 +19°C° 0.3 mm 5 mps 738 mmHg 71%
17:00 +19°C° 0.3 mm 5 mps 738 mmHg 76%
18:00 +18°C° 0.7 mm 4 mps 738 mmHg 81%
19:00 +15°C° 0.7 mm 4 mps 738 mmHg 85%
20:00 +14°C° 0.7 mm 4 mps 737 mmHg 90%
21:00 +13°C° 0.3 mm 3 mps 737 mmHg 92%
22:00 +14°C° 0.3 mm 2 mps 737 mmHg 93%
23:00 +13°C° 0.3 mm 2 mps 737 mmHg 95%

17 May, Monday

Time Temperature Precipitation Wind Pressure Humidity
00:00 +13°C° 0 mm 2 mps 737 mmHg 95%
01:00 +13°C° 0 mm 2 mps 737 mmHg 95%
02:00 +13°C° 0 mm 2 mps 737 mmHg 95%
03:00 +13°C° 0.2 mm 2 mps 737 mmHg 96%
04:00 +13°C° 0.2 mm 2 mps 737 mmHg 97%
05:00 +11°C° 0.2 mm 3 mps 737 mmHg 97%
06:00 +11°C° 0.1 mm 3 mps 738 mmHg 96%
07:00 +11°C° 0.1 mm 4 mps 738 mmHg 95%
08:00 +11°C° 0.1 mm 4 mps 738 mmHg 94%
09:00 +11°C° 0 mm 4 mps 738 mmHg 93%
10:00 +11°C° 0 mm 4 mps 738 mmHg 91%
11:00 +12°C° 0 mm 3 mps 738 mmHg 89%
12:00 +13°C° 0.1 mm 3 mps 738 mmHg 82%
13:00 +16°C° 0.1 mm 3 mps 738 mmHg 75%
14:00 +17°C° 0.1 mm 3 mps 738 mmHg 68%
15:00 +18°C° 0.1 mm 3 mps 738 mmHg 66%
16:00 +18°C° 0.1 mm 3 mps 738 mmHg 64%
17:00 +18°C° 0.1 mm 2 mps 738 mmHg 62%
18:00 +17°C° 0.1 mm 2 mps 738 mmHg 66%
19:00 +16°C° 0.1 mm 2 mps 738 mmHg 70%
20:00 +15°C° 0.1 mm 1 mps 738 mmHg 75%
21:00 +14°C° 0 mm 2 mps 738 mmHg 78%
22:00 +13°C° 0 mm 2 mps 738 mmHg 81%
23:00 +11°C° 0 mm 3 mps 738 mmHg 84%

18 May, Tuesday

Time Temperature Precipitation Wind Pressure Humidity
00:00 +12°C° 0 mm 2 mps 738 mmHg 86%
01:00 +10°C° 0 mm 2 mps 738 mmHg 87%
02:00 +11°C° 0 mm 1 mps 738 mmHg 89%
03:00 +10°C° 0 mm 2 mps 738 mmHg 90%
04:00 +10°C° 0 mm 2 mps 738 mmHg 90%
05:00 +10°C° 0 mm 2 mps 738 mmHg 91%
06:00 +11°C° 0 mm 3 mps 738 mmHg 87%
07:00 +12°C° 0 mm 3 mps 738 mmHg 83%
08:00 +14°C° 0 mm 4 mps 737 mmHg 79%
09:00 +14°C° 0.3 mm 5 mps 737 mmHg 78%
10:00 +15°C° 0.3 mm 6 mps 737 mmHg 77%
11:00 +16°C° 0.3 mm 7 mps 737 mmHg 75%
12:00 +15°C° 2.1 mm 7 mps 736 mmHg 81%
13:00 +14°C° 2.1 mm 7 mps 736 mmHg 87%
14:00 +11°C° 2.1 mm 8 mps 735 mmHg 93%
15:00 +11°C° 1.2 mm 7 mps 735 mmHg 94%
16:00 +11°C° 1.2 mm 6 mps 734 mmHg 95%
17:00 +13°C° 1.2 mm 6 mps 734 mmHg 96%
18:00 +12°C° 0.4 mm 5 mps 734 mmHg 96%
19:00 +12°C° 0.4 mm 4 mps 733 mmHg 95%
20:00 +12°C° 0.4 mm 3 mps 733 mmHg 95%
21:00 +11°C° 0 mm 3 mps 733 mmHg 95%
22:00 +11°C° 0 mm 4 mps 733 mmHg 96%
23:00 +10°C° 0 mm 4 mps 733 mmHg 96%
Show more